User: anonymous   Login
Location: Unspecified
(0.0000°N, 0.0000°E)
Time: 08:20:04
(UTC+00:00)
Language:

ELEKTRO-L - Orbit

View from above orbital plane
View from above orbital plane
View from above satellite
View from above satellite

Ground track
Ground track

The orbit data is extracted from the following two-line orbital elements,

1 37344U 11001A   16272.10800517 -.00000144  00000-0  00000+0 0  9993
2 37344   1.9029  78.9041 0000941 241.4829  71.4822  1.00267495 20872
Epoch (UTC): 28 September 2016 02:35:31
Eccentricity: 0.0000941
inclination: 1.9029°
perigee height: 35783 km
apogee height: 35791 km
right ascension of ascending node: 78.9041°
argument of perigee: 241.4829°
revolutions per day: 1.00267495
mean anomaly at epoch: 71.4822°
orbit number at epoch: 2087

The dashed part of the orbit path shows where the satellite is in the earth's shadow,  

DLR